Temperature
24 23 22 21 21 20 20 20 19 19 19 18 18 18 18 18 18 18 18 18 18 18 18 18 18 17 17 17 17 17 17 17 17 17 18 18 17 17 17 17 17 17 17
24 23 22 22 21 21 20 20 20 19 19 19 19 18 18 18 18 18 18 18 18 18 18 18 17 18 18 17 17 17 17 17 17 17 18 18 18 17 17 17 17 16 16
25 23 22 22 21 21 21 20 20 19 19 19 18 18 18 18 18 18 18 18 18 18 18 17 17 17 17 17 17 17 17 17 17 17 18 18 18 17 17 16 16 16 16
25 24 23 22 22 21 21 20 20 20 19 19 19 18 18 18 18 18 18 18 18 18 18 18 17 17 17 17 17 17 17 17 17 17 17 17 17 17 17 16 16 16 16
26 25 24 23 22 21 21 21 21 20 20 19 19 19 18 18 18 18 18 18 18 18 18 17 17 17 17 17 17 17 17 17 17 17 17 17 17 17 17 16 16 15 15
26 25 24 23 22 22 21 21 21 20 20 20 19 19 18 18 18 18 18 18 18 17 17 17 17 17 17 17 17 17 17 17 17 17 17 17 17 16 16 16 16 15 15
26 25 24 23 22 22 21 21 21 21 20 20 19 19 19 19 18 18 18 18 18 17 17 17 17 17 17 17 17 17 17 17 17 17 16 16 16 16 16 16 15 15 14
26 25 24 24 23 22 22 21 21 21 20 20 20 19 19 18 18 18 18 18 17 17 17 17 17 17 17 17 17 17 17 17 17 16 16 16 16 16 16 16 15 15 14
27 26 25 24 23 22 22 21 21 21 21 20 20 20 19 19 18 18 18 17 18 17 17 17 17 17 17 17 17 17 17 17 16 16 16 16 16 16 16 16 15 15 15
27 26 25 24 23 23 22 21 21 21 21 20 20 20 19 19 19 18 18 18 18 18 17 17 17 17 17 17 17 16 17 17 16 16 16 16 15 15 15 15 15 15 15
27 26 25 24 23 23 22 22 21 21 21 20 20 20 19 19 19 19 18 18 18 17 17 17 17 16 16 16 17 16 16 16 16 16 16 16 15 15 15 15 15 15 15
27 25 25 24 23 23 22 22 21 21 21 21 20 20 20 19 19 18 18 18 18 17 17 17 17 16 16 16 16 16 16 16 16 15 15 15 15 15 15 15 15 14 14
26 25 24 24 23 23 22 22 21 21 21 21 20 20 20 19 19 18 18 18 17 17 17 17 16 16 16 16 16 16 16 15 15 15 15 15 15 15 14 14 14 14 14
25 25 24 23 23 22 22 22 21 21 21 21 20 20 19 19 19 18 18 18 17 17 17 16 16 16 16 16 15 15 15 15 15 15 15 15 14 14 14 14 14 14 13
25 24 24 23 22 22 22 22 21 21 21 21 20 20 19 19 19 18 18 18 17 16 16 16 16 16 15 15 15 15 15 15 15 14 14 14 14 14 14 14 13 13 13
25 24 23 23 22 22 21 21 21 21 21 21 20 20 20 19 19 18 18 17 17 16 16 16 15 15 15 15 15 15 15 14 14 14 14 14 14 14 14 14 13 13 13
24 24 23 23 22 22 22 22 22 21 21 21 20 20 20 19 19 18 17 17 17 16 16 15 15 15 15 15 15 15 14 14 14 14 13 13 13 13 13 13 13 13 13
24 23 23 22 22 22 22 22 21 21 21 21 20 20 20 19 18 18 17 17 16 16 16 15 15 15 15 15 15 14 14 13 13 13 13 13 13 13 13 12 12 12 12
23 23 23 23 22 22 22 21 21 21 21 20 20 20 20 19 18 18 17 17 16 16 15 15 15 15 15 15 14 14 14 13 13 13 13 13 12 13 12 12 12 12 12
22 22 22 22 22 21 21 21 20 20 20 20 20 20 19 19 18 18 17 17 16 16 15 15 15 14 14 14 14 14 13 13 13 13 13 13 12 12 12 12 11 11 11
22 22 22 22 21 21 21 20 20 20 20 20 19 19 19 18 18 17 17 16 16 15 15 15 15 14 14 14 14 14 13 13 13 13 12 12 12 12 12 11 11 11 11
21 21 21 21 21 20 20 20 20 20 20 19 19 19 18 18 17 17 16 16 16 15 15 14 14 14 14 14 14 13 13 13 12 12 12 12 12 12 12 11 11 11 11
20 20 20 20 20 20 20 20 20 19 19 19 18 18 17 17 17 16 16 16 15 15 14 14 14 14 14 14 13 13 13 13 12 12 12 12 12 11 11 11 11 11 11
20 20 20 20 19 19 19 19 19 19 19 18 18 17 17 16 16 16 16 15 15 15 14 14 14 14 13 13 13 13 13 12 12 12 12 11 11 11 11 11 11 10 10
18 19 19 19 19 18 18 18 18 18 18 18 17 17 16 16 16 15 15 15 15 15 14 14 14 14 13 13 13 13 13 12 12 12 11 11 11 11 11 11 10 10 10
18 18 18 18 18 18 18 18 18 18 18 17 17 16 16 16 15 15 15 15 14 14 14 14 14 14 14 13 13 13 13 12 12 12 11 11 11 11 11 11 11 10 10
Wind_Speed
10 10 9 9 8 7 7 7 6 6 5 4 4 4 3 2 2 2 2 3 3 3 3 3 2 3 3 3 3 3 3 2 1 2 2 2 3 2 1 1 1 1 1
11 11 10 10 9 8 8 8 7 7 6 4 3 3 2 2 2 1 1 2 3 3 3 3 3 2 2 3 3 3 3 2 3 2 3 2 3 2 1 2 2 2 2
12 12 12 11 10 10 9 8 7 7 7 5 4 4 3 3 2 2 2 2 2 3 2 2 3 3 3 2 3 3 4 4 3 3 3 3 2 1 2 2 2 2 2
13 12 12 12 11 10 9 9 8 7 6 6 5 5 4 3 2 2 1 1 1 2 2 2 2 3 3 2 4 3 4 4 4 3 4 4 2 2 1 2 3 3 2
13 13 12 12 11 10 9 9 8 7 7 6 6 5 5 3 2 2 2 2 1 1 1 2 2 2 3 2 3 3 4 4 4 3 3 3 3 3 3 2 2 2 2
13 13 12 11 11 10 9 9 9 8 7 7 6 6 5 4 3 2 2 2 1 1 1 1 1 2 2 2 2 2 3 3 3 3 3 3 3 3 3 3 2 2 2
13 13 13 13 12 12 11 10 9 8 8 8 7 6 5 4 4 3 2 1 1 0 0 1 1 1 1 1 1 1 2 2 2 3 3 3 3 3 3 3 3 2 1
13 13 14 13 12 12 12 11 10 9 9 8 7 5 5 4 3 3 2 1 0 1 1 1 1 1 1 1 1 1 1 1 2 2 2 2 2 3 3 3 3 3 2
12 13 14 14 13 13 12 11 10 9 9 8 7 6 5 4 3 3 2 1 1 1 1 1 1 1 1 2 1 1 1 1 1 1 1 2 1 2 2 3 4 3 3
11 12 12 13 13 12 12 11 10 10 9 9 8 7 6 5 5 3 2 1 1 1 1 1 1 1 1 1 1 1 1 1 1 1 1 1 0 0 1 2 3 3 3
11 11 11 11 12 12 12 11 11 10 9 9 8 7 6 6 5 4 3 2 2 1 1 1 1 2 2 2 2 2 2 2 2 1 1 1 1 0 1 2 2 2 3
10 11 11 11 12 12 12 12 11 11 10 9 9 8 7 6 5 5 4 3 2 2 2 1 1 2 2 2 2 2 2 2 2 2 2 2 1 1 1 2 3 3 4
9 10 11 11 11 12 12 12 12 11 11 10 9 8 8 7 6 5 5 4 3 2 2 2 2 2 2 2 2 2 3 3 3 3 3 3 3 3 3 2 3 4 5
8 9 10 11 11 11 11 12 11 11 11 11 10 9 8 7 7 6 5 4 4 3 3 3 2 2 2 2 3 3 4 4 4 4 4 4 3 3 3 3 4 5 6
8 9 10 11 11 11 11 11 11 11 11 11 10 9 8 7 7 6 6 5 4 4 4 4 3 3 2 3 3 3 4 4 4 4 4 5 6 6 4 3 4 5 5
7 8 10 11 12 11 11 11 11 11 11 11 10 10 9 9 8 7 6 5 5 4 4 4 4 3 3 6 4 2 3 3 4 4 5 5 5 7 7 7 7 5 5
5 7 9 11 11 12 12 12 12 12 12 11 11 10 10 10 9 8 7 6 6 5 5 4 4 4 5 5 3 3 2 3 4 4 3 4 5 4 6 7 7 7 6
4 6 7 9 10 11 11 11 12 12 13 12 11 11 11 10 9 8 8 7 6 6 6 5 5 4 5 5 4 1 3 4 4 4 4 4 5 5 4 5 6 5 4
2 3 6 8 10 11 11 11 12 12 12 12 12 12 11 11 10 9 9 7 7 6 6 5 5 5 5 5 3 2 4 4 4 4 4 3 4 4 2 4 5 5 5
1 2 5 7 9 10 11 12 12 12 12 12 12 11 11 10 10 10 9 8 7 7 6 6 5 5 5 6 3 4 3 4 4 4 4 4 4 4 1 3 4 5 5
1 2 5 7 8 9 10 11 11 11 10 10 10 10 10 10 10 9 9 9 8 7 6 6 6 5 5 7 5 3 2 3 3 3 3 4 6 3 1 1 3 4 3
1 2 4 5 6 8 9 10 9 9 9 9 10 10 10 9 9 10 9 8 8 8 7 7 6 5 6 6 6 4 2 1 3 3 3 5 6 4 1 1 4 2 3
1 1 3 4 5 6 8 8 8 8 8 9 10 10 10 9 9 10 10 8 8 7 7 7 7 6 6 7 8 7 4 2 2 2 5 6 6 6 4 5 4 4 4
1 1 3 4 4 5 6 6 7 8 8 9 9 9 9 9 9 8 8 8 8 8 8 8 7 7 7 7 7 7 7 6 5 4 6 7 6 4 3 5 5 4 3
1 1 3 3 4 5 5 6 7 8 8 8 8 9 9 8 8 7 5 6 6 6 7 7 8 7 7 6 6 6 7 6 6 5 5 5 5 5 5 5 4 4 4
2 0 2 3 4 4 5 5 7 7 8 8 8 7 8 8 8 7 6 2 1 3 3 2 3 4 5 9 9 6 4 4 5 5 6 6 6 6 5 5 5 5 4
Wind_Direction
197 195 197 198 193 192 195 204 210 202 209 215 215 211 210 215 215 223 221 229 239 232 242 262 215 245 247 252 244 240 225 232 234 242 222 195 195 186 202 201 201 186 197
196 193 197 198 198 196 196 204 207 206 209 210 219 225 227 225 215 237 209 232 235 238 226 240 250 247 256 246 247 250 254 240 223 248 250 227 195 178 174 173 169 147 121
201 196 197 199 199 198 198 202 205 205 210 210 207 208 202 217 213 206 201 228 239 244 255 250 265 273 264 258 258 255 251 254 238 235 250 258 241 156 147 125 122 121 119
203 199 196 198 200 199 196 199 199 201 201 203 214 219 229 231 224 224 194 208 228 249 249 254 261 272 275 269 265 254 261 256 258 238 241 259 274 239 196 154 130 117 101
201 199 198 196 198 196 193 192 192 197 199 202 208 217 231 230 211 203 195 239 217 251 274 273 276 269 274 283 286 281 266 256 260 259 252 244 234 233 234 213 162 115 79
198 197 195 191 193 192 192 190 188 194 196 201 207 215 224 229 227 221 221 223 206 202 277 282 302 288 294 286 279 277 263 272 266 261 257 251 242 225 223 218 192 146 95
194 193 191 190 191 191 191 189 187 192 195 197 201 206 213 217 220 230 215 240 240 179 66 352 338 326 314 301 300 292 300 279 264 258 259 257 252 249 228 210 196 172 152
191 191 189 189 190 191 190 189 188 189 189 190 193 197 204 213 207 207 229 219 250 49 36 9 6 356 338 327 313 297 322 312 278 273 275 263 249 236 221 211 187 178 184
185 186 186 187 187 189 189 189 185 184 183 182 182 187 193 200 186 175 196 188 180 154 99 66 46 24 17 3 342 22 357 346 316 290 263 262 246 233 216 207 214 208 200
180 180 182 185 184 184 184 186 183 181 180 179 184 181 182 182 180 183 168 161 169 117 128 94 66 51 45 32 7 38 32 29 31 360 355 311 295 228 214 213 218 219 192
179 176 177 178 178 179 179 180 180 179 180 182 181 177 176 176 176 173 174 177 170 150 135 93 72 58 44 39 41 38 39 53 56 47 52 30 25 122 189 173 169 152 144
177 175 173 172 175 177 178 179 180 179 180 178 177 177 176 176 178 173 170 165 154 144 127 110 92 82 68 56 56 50 48 53 56 52 56 50 64 73 98 141 141 133 139
178 177 175 176 177 177 178 178 181 180 177 174 176 176 177 177 178 171 162 155 149 145 134 121 108 91 78 69 63 65 69 65 58 53 57 57 65 73 83 104 120 130 136
181 183 179 179 178 177 177 179 181 177 175 175 177 178 179 177 172 166 160 158 158 153 144 135 120 106 87 74 76 77 76 74 68 62 60 59 64 74 94 107 119 128 134
184 186 184 179 177 177 179 181 179 177 175 176 177 176 172 165 162 162 163 163 163 155 143 136 124 114 109 81 74 87 88 85 84 76 70 68 66 58 58 87 115 132 139
193 190 187 181 180 179 180 181 178 175 174 176 175 169 166 165 167 165 163 159 155 148 143 143 133 122 91 70 44 44 95 94 93 88 83 89 87 87 78 69 71 79 131
203 195 192 188 183 183 181 180 177 172 172 175 172 169 169 169 168 164 159 156 154 149 143 140 129 113 96 92 73 38 96 105 95 91 91 91 90 99 101 104 111 87 71
220 201 192 190 185 183 182 180 174 174 175 176 175 174 173 171 168 167 163 160 155 151 148 147 145 138 124 119 116 109 123 106 103 102 99 100 101 89 96 115 109 105 98
234 208 198 191 181 181 180 176 176 178 179 180 180 178 175 172 172 172 167 162 160 160 161 157 158 149 138 135 146 216 138 122 115 107 97 105 112 78 42 123 120 115 113
246 187 191 182 177 179 176 177 179 182 186 185 182 178 175 176 176 169 165 164 166 167 168 158 158 156 151 146 171 237 168 142 138 126 115 82 87 95 2 137 132 131 128
303 171 175 175 174 174 175 180 182 187 187 181 176 175 175 175 172 166 167 167 170 169 171 163 163 164 159 157 173 248 196 161 158 149 141 116 107 106 16 283 127 119 140
20 151 162 164 167 172 175 179 185 185 175 172 174 175 175 174 168 167 170 172 172 173 174 174 176 171 167 167 170 187 226 296 166 165 145 124 129 133 167 143 105 131 213
31 135 160 153 156 173 179 183 179 178 171 171 175 176 177 175 171 172 173 176 183 189 187 185 185 180 172 164 163 175 183 222 190 143 93 118 151 168 164 154 169 200 203
12 144 161 157 158 169 178 181 175 172 170 174 175 176 176 175 174 179 181 186 192 197 196 195 194 184 179 179 178 181 181 182 185 167 144 156 178 199 150 165 190 211 207
336 167 172 173 167 167 175 172 166 168 171 175 177 179 179 179 180 183 188 195 202 210 211 202 195 191 190 180 172 187 186 188 178 173 179 184 183 188 187 191 194 198 190
338 222 175 175 171 170 169 169 167 168 174 178 179 184 183 181 182 178 180 148 195 171 203 259 213 181 148 143 153 167 164 149 155 189 194 197 204 203 199 197 193 197 200
Height
1544 1546 1548 1549 1550 1551 1552 1553 1554 1554 1555 1556 1557 1557 1558 1558 1558 1558 1558 1558 1558 1559 1558 1559 1559 1559 1559 1559 1560 1560 1559 1559 1559 1560 1560 1560 1560 1560 1560 1560 1560 1561 1561
1541 1544 1545 1547 1548 1549 1550 1551 1552 1553 1554 1554 1555 1556 1556 1557 1557 1557 1557 1557 1557 1557 1558 1557 1558 1558 1558 1557 1557 1557 1558 1558 1557 1558 1558 1558 1559 1558 1558 1558 1558 1558 1558
1538 1540 1542 1544 1546 1547 1549 1550 1551 1552 1552 1553 1554 1555 1555 1556 1556 1556 1556 1556 1556 1556 1556 1556 1556 1556 1556 1556 1555 1555 1555 1556 1555 1555 1556 1556 1555 1556 1556 1555 1555 1555 1556
1534 1537 1539 1541 1543 1545 1547 1548 1549 1550 1551 1551 1553 1554 1554 1555 1555 1555 1555 1555 1554 1554 1554 1554 1554 1554 1554 1554 1554 1554 1553 1553 1553 1553 1553 1553 1553 1554 1554 1554 1554 1554 1554
1530 1533 1536 1538 1541 1543 1545 1546 1547 1548 1549 1550 1551 1552 1553 1554 1554 1554 1553 1553 1553 1553 1553 1553 1552 1552 1552 1552 1551 1551 1551 1551 1550 1551 1550 1550 1550 1551 1552 1552 1553 1553 1553
1527 1530 1533 1536 1539 1541 1542 1544 1545 1546 1547 1548 1549 1550 1551 1552 1552 1552 1553 1553 1553 1552 1551 1551 1551 1550 1550 1550 1549 1549 1549 1548 1548 1547 1548 1548 1548 1548 1549 1549 1550 1550 1551
1523 1527 1530 1533 1536 1538 1540 1541 1543 1544 1545 1546 1547 1548 1549 1550 1551 1551 1551 1552 1552 1551 1550 1550 1549 1549 1548 1548 1547 1547 1546 1546 1545 1545 1545 1545 1546 1546 1546 1547 1547 1548 1550
1520 1523 1527 1530 1533 1535 1537 1539 1540 1541 1543 1544 1546 1547 1548 1549 1550 1550 1550 1550 1551 1550 1549 1549 1548 1547 1547 1546 1545 1545 1544 1544 1543 1543 1543 1543 1543 1543 1543 1544 1545 1546 1548
1517 1520 1524 1527 1530 1533 1535 1537 1538 1540 1541 1543 1544 1546 1547 1548 1548 1548 1549 1549 1549 1549 1548 1548 1547 1546 1545 1544 1544 1543 1542 1542 1542 1541 1541 1541 1541 1540 1541 1541 1543 1545 1546
1515 1518 1521 1524 1527 1530 1532 1534 1536 1538 1540 1542 1543 1545 1545 1546 1547 1548 1548 1548 1548 1548 1547 1547 1546 1545 1544 1543 1543 1542 1541 1540 1540 1539 1539 1539 1539 1539 1539 1540 1541 1542 1544
1512 1515 1518 1521 1524 1527 1530 1532 1534 1536 1538 1540 1542 1543 1544 1545 1546 1546 1547 1547 1547 1546 1546 1546 1545 1544 1544 1543 1542 1541 1540 1539 1539 1538 1538 1537 1537 1538 1538 1539 1540 1540 1542
1510 1513 1516 1519 1522 1524 1527 1529 1532 1534 1536 1538 1540 1542 1543 1544 1545 1546 1546 1546 1546 1546 1545 1545 1544 1544 1543 1542 1541 1540 1539 1539 1538 1537 1537 1536 1537 1537 1537 1538 1538 1539 1540
1509 1511 1514 1516 1519 1522 1524 1527 1529 1532 1534 1536 1538 1540 1541 1542 1543 1544 1544 1545 1544 1544 1544 1544 1543 1542 1542 1541 1540 1539 1538 1538 1537 1537 1536 1536 1536 1536 1537 1537 1538 1538 1540
1507 1509 1511 1514 1516 1519 1522 1524 1527 1530 1532 1534 1536 1538 1539 1540 1541 1542 1543 1543 1543 1543 1543 1542 1542 1541 1541 1540 1539 1539 1538 1538 1537 1537 1536 1536 1536 1536 1536 1537 1537 1538 1539
1504 1506 1508 1511 1514 1516 1519 1522 1525 1527 1529 1531 1534 1535 1537 1538 1539 1540 1541 1541 1541 1541 1541 1541 1540 1540 1540 1539 1539 1538 1538 1538 1537 1537 1537 1536 1536 1537 1537 1537 1538 1539 1540
1502 1504 1506 1508 1510 1513 1516 1519 1522 1524 1526 1529 1531 1532 1534 1536 1537 1538 1538 1539 1539 1539 1539 1540 1539 1539 1539 1538 1538 1538 1538 1538 1538 1537 1537 1537 1537 1537 1537 1537 1538 1539 1540
1500 1501 1503 1505 1507 1509 1512 1515 1518 1521 1523 1525 1527 1529 1531 1533 1534 1535 1536 1537 1537 1537 1537 1538 1538 1538 1538 1538 1538 1538 1538 1538 1538 1538 1538 1539 1538 1538 1538 1538 1538 1539 1540
1497 1498 1500 1502 1504 1507 1510 1512 1515 1517 1519 1522 1524 1526 1528 1529 1531 1532 1534 1534 1536 1536 1536 1537 1538 1537 1537 1538 1538 1538 1538 1538 1538 1538 1538 1539 1539 1539 1538 1539 1539 1539 1540
1495 1495 1497 1499 1501 1503 1506 1509 1511 1514 1516 1518 1521 1523 1524 1526 1528 1530 1531 1533 1533 1534 1535 1536 1536 1537 1537 1537 1537 1538 1538 1538 1538 1539 1539 1539 1539 1539 1539 1539 1539 1540 1540
1493 1493 1494 1496 1498 1500 1502 1505 1507 1510 1513 1515 1517 1520 1521 1523 1525 1527 1528 1530 1531 1533 1534 1534 1535 1536 1536 1537 1537 1537 1538 1538 1539 1538 1539 1539 1539 1539 1539 1539 1540 1540 1540
1491 1491 1492 1494 1495 1497 1499 1501 1504 1507 1510 1513 1515 1517 1519 1521 1523 1524 1526 1527 1529 1530 1532 1533 1533 1534 1535 1535 1536 1536 1537 1538 1538 1539 1539 1539 1539 1539 1539 1539 1540 1540 1540
1489 1490 1490 1491 1493 1495 1496 1498 1501 1504 1507 1509 1512 1514 1516 1518 1520 1522 1524 1525 1527 1528 1529 1530 1532 1532 1533 1534 1534 1535 1536 1536 1537 1538 1538 1538 1538 1538 1539 1539 1539 1540 1540
1488 1488 1489 1489 1491 1492 1494 1496 1498 1501 1503 1506 1508 1511 1513 1515 1517 1519 1521 1522 1524 1526 1527 1529 1530 1531 1531 1532 1533 1533 1534 1535 1535 1536 1536 1537 1537 1538 1538 1539 1539 1539 1540
1486 1486 1487 1488 1489 1490 1492 1494 1496 1498 1500 1502 1505 1508 1510 1511 1513 1516 1518 1520 1521 1523 1524 1526 1527 1528 1529 1530 1530 1531 1532 1533 1534 1534 1535 1535 1536 1537 1537 1537 1538 1539 1540
1485 1485 1486 1487 1487 1488 1490 1491 1493 1495 1497 1499 1502 1505 1506 1509 1510 1512 1514 1516 1518 1519 1521 1523 1524 1525 1526 1527 1528 1529 1530 1531 1532 1532 1533 1534 1535 1535 1536 1536 1536 1537 1538
1483 1483 1484 1485 1485 1486 1487 1489 1491 1492 1494 1496 1498 1501 1503 1505 1507 1508 1510 1512 1514 1514 1516 1518 1520 1521 1523 1523 1524 1526 1527 1528 1529 1530 1531 1532 1533 1533 1534 1534 1535 1535 1536